Flag for USA

Past Weather in Hartford, Connecticut, USA — Yesterday and Last 2 Weeks

Now
80 °F

Sunny.


Feels Like: 79 °F
Forecast: 79 / 52 °F
Wind: 5 mph from North

Location: Hartford-Brainard Airport
Current Time: Sep 24, 2020 at 3:36:31 pm
Latest Report: Sep 24, 2020 at 2:53 pm
Visibility: 10 mi
Pressure29.94 "Hg
Humidity: 32%
Dew Point: 48 °F
Location of HartfordLocation

Past Weather in Hartford — Graph

°F

Hartford Temperature Yesterday

Maximum temperature yesterday: 80 °F (at 2:53 pm)
Minimum temperature yesterday: 44 °F (at 4:53 am)
Average temperature yesterday: 65 °F

High & Low Weather Summary for the Past Weeks

 TemperatureHumidityPressure
High84 °F (Sep 10, 1:53 pm)94% (Sep 10, 10:53 pm)30.61 "Hg (Sep 10, 10:53 pm)
Low37 °F (Sep 22, 6:53 am)17% (Sep 22, 12:53 pm)29.77 "Hg (Sep 23, 2:53 pm)
Average63 °F62%30.17 "Hg
* Reported Sep 9 1:53 pm — Sep 24 1:53 pm, Hartford. Weather by CustomWeather, © 2020

Note: Actual official high and low records may vary slightly from our data, if they occured in-between our weather recording intervals... More about our weather records

Hartford Weather History for the Previous 24 Hours

Scroll right to see more
 ConditionsComfort  
Time TempWeatherWind HumidityBarometerVisibility
1:53 pm
Thu, Sep 24
78 °FSunny.9 mph36%29.95 "Hg10 mi
12:53 pm77 °FSunny.7 mph39%29.96 "Hg7 mi
11:53 am75 °FSunny.5 mph48%29.97 "Hg10 mi
10:53 am71 °FSunny.3 mph55%29.97 "Hg10 mi
9:53 am67 °FSunny.5 mph63%29.98 "Hg10 mi
8:53 am61 °FSunny.3 mph78%29.97 "Hg10 mi
7:53 am56 °FSunny.3 mph87%29.96 "Hg10 mi
6:53 am51 °FSunny.No wind89%29.94 "Hg10 mi
5:53 am53 °FClear.No wind89%29.93 "Hg10 mi
4:53 am53 °FFog.No wind89%29.92 "Hg6 mi
3:53 am55 °FClear.No wind87%29.90 "Hg9 mi
2:53 am55 °FClear.No wind87%29.89 "Hg10 mi
1:53 am56 °FClear.3 mph87%29.90 "Hg10 mi
12:53 am58 °FClear.No wind81%29.90 "Hg10 mi
11:53 pm
Wed, Sep 23
60 °FClear.No wind75%29.89 "Hg10 mi
10:53 pm69 °FClear.3 mph51%29.88 "Hg10 mi
9:53 pm71 °FClear.7 mph47%29.88 "Hg10 mi
8:53 pm71 °FClear.5 mph47%29.86 "Hg10 mi
7:53 pm74 °FClear.8 mph43%29.84 "Hg10 mi
6:53 pm75 °FClear.10 mph40%29.82 "Hg10 mi
5:53 pm78 °FScattered clouds.9 mph37%29.79 "Hg10 mi
4:53 pm79 °FScattered clouds.13 mph38%29.77 "Hg10 mi
3:53 pm80 °FScattered clouds.10 mph38%29.77 "Hg10 mi
Weather by CustomWeather, © 2020

See weather overview